"Time","Value","Approval","myLocation"
"2023-05-07 00:00",17.049,"Approved","OW441"
"2023-05-07 01:00",17.06,"Approved","OW441"
"2023-05-07 02:00",17.07,"Approved","OW441"
"2023-05-07 03:00",17.078,"Approved","OW441"
"2023-05-07 04:00",17.085,"Approved","OW441"
"2023-05-07 05:00",17.09,"Approved","OW441"
"2023-05-07 06:00",17.096,"Approved","OW441"
"2023-05-07 07:00",17.1,"Approved","OW441"
"2023-05-07 08:00",17.104,"Approved","OW441"
"2023-05-07 09:00",17.106,"Approved","OW441"
"2023-05-07 10:00",17.109,"Approved","OW441"
"2023-05-07 11:00",17.05,"Approved","OW441"
"2023-05-07 12:00",16.99,"Approved","OW441"
"2023-05-07 13:00",16.953,"Approved","OW441"
"2023-05-07 14:00",16.917,"Approved","OW441"
"2023-05-07 15:00",16.887,"Approved","OW441"
"2023-05-07 16:00",16.863,"Approved","OW441"
"2023-05-07 17:00",16.849,"Approved","OW441"
"2023-05-07 18:00",16.865,"Approved","OW441"
"2023-05-07 19:00",16.953,"Approved","OW441"
"2023-05-07 20:00",17,"Approved","OW441"
"2023-05-07 21:00",17.031,"Approved","OW441"
"2023-05-07 22:00",17.056,"Approved","OW441"
"2023-05-07 23:00",17.076,"Approved","OW441"
"2023-05-08 00:00",17.092,"Approved","OW441"
"2023-05-08 01:00",17.105,"Approved","OW441"
"2023-05-08 02:00",17.117,"Approved","OW441"
"2023-05-08 03:00",17.127,"Approved","OW441"
"2023-05-08 04:00",17.136,"Approved","OW441"
"2023-05-08 05:00",17.144,"Approved","OW441"
"2023-05-08 06:00",17.151,"Approved","OW441"
"2023-05-08 07:00",17.155,"Approved","OW441"
"2023-05-08 08:00",17.159,"Approved","OW441"
"2023-05-08 09:00",17.163,"Approved","OW441"
"2023-05-08 10:00",17.165,"Approved","OW441"
"2023-05-08 11:00",17.146,"Approved","OW441"
"2023-05-08 12:00",17.058,"Approved","OW441"
"2023-05-08 13:00",17.011,"Approved","OW441"
"2023-05-08 14:00",16.979,"Approved","OW441"
"2023-05-08 15:00",16.955,"Approved","OW441"
"2023-05-08 16:00",16.935,"Approved","OW441"
"2023-05-08 17:00",16.92,"Approved","OW441"
"2023-05-08 18:00",16.965,"Approved","OW441"
"2023-05-08 19:00",17.013,"Approved","OW441"
"2023-05-08 20:00",17.04,"Approved","OW441"
"2023-05-08 21:00",17.058,"Approved","OW441"
"2023-05-08 22:00",17.07,"Approved","OW441"
"2023-05-08 23:00",17.08,"Approved","OW441"
"2023-05-09 00:00",17.088,"Approved","OW441"
"2023-05-09 01:00",17.094,"Approved","OW441"
"2023-05-09 02:00",17.1,"Approved","OW441"
"2023-05-09 03:00",17.105,"Approved","OW441"
"2023-05-09 04:00",17.111,"Approved","OW441"
"2023-05-09 05:00",17.115,"Approved","OW441"
"2023-05-09 06:00",17.118,"Approved","OW441"
"2023-05-09 07:00",17.121,"Approved","OW441"
"2023-05-09 08:00",17.122,"Approved","OW441"
"2023-05-09 09:00",17.124,"Approved","OW441"
"2023-05-09 10:00",17.126,"Approved","OW441"
"2023-05-09 11:00",17.128,"Approved","OW441"
"2023-05-09 12:00",17.113,"Approved","OW441"
"2023-05-09 13:00",17.044,"Approved","OW441"
"2023-05-09 14:00",17.008,"Approved","OW441"
"2023-05-09 15:00",16.986,"Approved","OW441"
"2023-05-09 16:00",16.968,"Approved","OW441"
"2023-05-09 17:00",16.955,"Approved","OW441"
"2023-05-09 18:00",16.963,"Approved","OW441"
"2023-05-09 19:00",17.054,"Approved","OW441"
"2023-05-09 20:00",17.103,"Approved","OW441"
"2023-05-09 21:00",17.133,"Approved","OW441"
"2023-05-09 22:00",17.154,"Approved","OW441"
"2023-05-09 23:00",17.17,"Approved","OW441"
"2023-05-10 00:00",17.182,"Approved","OW441"
"2023-05-10 01:00",17.192,"Approved","OW441"
"2023-05-10 02:00",17.201,"Approved","OW441"
"2023-05-10 03:00",17.209,"Approved","OW441"
"2023-05-10 04:00",17.216,"Approved","OW441"
"2023-05-10 05:00",17.222,"Approved","OW441"
"2023-05-10 06:00",17.226,"Approved","OW441"
"2023-05-10 07:00",17.23,"Approved","OW441"
"2023-05-10 08:00",17.233,"Approved","OW441"
"2023-05-10 09:00",17.159,"Approved","OW441"
"2023-05-10 10:00",17.092,"Approved","OW441"
"2023-05-10 11:00",17.052,"Approved","OW441"
"2023-05-10 12:00",17.026,"Approved","OW441"
"2023-05-10 13:00",17.006,"Approved","OW441"
"2023-05-10 14:00",16.99,"Approved","OW441"
"2023-05-10 15:00",16.978,"Approved","OW441"
"2023-05-10 16:00",16.968,"Approved","OW441"
"2023-05-10 17:00",17.042,"Approved","OW441"
"2023-05-10 18:00",17.09,"Approved","OW441"
"2023-05-10 19:00",17.116,"Approved","OW441"
"2023-05-10 20:00",17.135,"Approved","OW441"
"2023-05-10 21:00",17.149,"Approved","OW441"
"2023-05-10 22:00",17.159,"Approved","OW441"
"2023-05-10 23:00",17.167,"Approved","OW441"
"2023-05-11 00:00",17.174,"Approved","OW441"
"2023-05-11 01:00",17.18,"Approved","OW441"
"2023-05-11 02:00",17.185,"Approved","OW441"
"2023-05-11 03:00",17.19,"Approved","OW441"
"2023-05-11 04:00",17.195,"Approved","OW441"
"2023-05-11 05:00",17.2,"Approved","OW441"
"2023-05-11 06:00",17.203,"Approved","OW441"
"2023-05-11 07:00",17.205,"Approved","OW441"
"2023-05-11 08:00",17.207,"Approved","OW441"
"2023-05-11 09:00",17.208,"Approved","OW441"
"2023-05-11 10:00",17.209,"Approved","OW441"
"2023-05-11 11:00",17.18,"Approved","OW441"
"2023-05-11 12:00",17.106,"Approved","OW441"
"2023-05-11 13:00",17.067,"Approved","OW441"
"2023-05-11 14:00",17.042,"Approved","OW441"
"2023-05-11 15:00",17.024,"Approved","OW441"
"2023-05-11 16:00",17.01,"Approved","OW441"
"2023-05-11 17:00",17.002,"Approved","OW441"
"2023-05-11 18:00",17.091,"Approved","OW441"
"2023-05-11 19:00",17.141,"Approved","OW441"
"2023-05-11 20:00",17.172,"Approved","OW441"
"2023-05-11 21:00",17.192,"Approved","OW441"
"2023-05-11 22:00",17.208,"Approved","OW441"
"2023-05-11 23:00",17.221,"Approved","OW441"
"2023-05-12 00:00",17.23,"Approved","OW441"
"2023-05-12 01:00",17.238,"Approved","OW441"
"2023-05-12 02:00",17.245,"Approved","OW441"
"2023-05-12 03:00",17.251,"Approved","OW441"
"2023-05-12 04:00",17.257,"Approved","OW441"
"2023-05-12 05:00",17.263,"Approved","OW441"
"2023-05-12 06:00",17.267,"Approved","OW441"
"2023-05-12 07:00",17.269,"Approved","OW441"
"2023-05-12 08:00",17.272,"Approved","OW441"
"2023-05-12 09:00",17.274,"Approved","OW441"
"2023-05-12 10:00",17.275,"Approved","OW441"
"2023-05-12 11:00",17.276,"Approved","OW441"
"2023-05-12 12:00",17.198,"Approved","OW441"
"2023-05-12 13:00",17.126,"Approved","OW441"
"2023-05-12 14:00",17.074,"Approved","OW441"
"2023-05-12 15:00",17.037,"Approved","OW441"
"2023-05-12 16:00",17.018,"Approved","OW441"
"2023-05-12 17:00",17.003,"Approved","OW441"
"2023-05-12 18:00",17.062,"Approved","OW441"
"2023-05-12 19:00",17.1,"Approved","OW441"
"2023-05-12 20:00",17.121,"Approved","OW441"
"2023-05-12 21:00",17.135,"Approved","OW441"
"2023-05-12 22:00",17.148,"Approved","OW441"
"2023-05-12 23:00",17.16,"Approved","OW441"
"2023-05-13 00:00",17.166,"Approved","OW441"
"2023-05-13 01:00",17.171,"Approved","OW441"
"2023-05-13 02:00",17.178,"Approved","OW441"
"2023-05-13 03:00",17.199,"Approved","OW441"
"2023-05-13 04:00",17.301,"Approved","OW441"
"2023-05-13 05:00",17.359,"Approved","OW441"
"2023-05-13 06:00",17.395,"Approved","OW441"
"2023-05-13 07:00",17.419,"Approved","OW441"
"2023-05-13 08:00",17.303,"Approved","OW441"
"2023-05-13 09:00",17.207,"Approved","OW441"
"2023-05-13 10:00",17.152,"Approved","OW441"
"2023-05-13 11:00",17.112,"Approved","OW441"
"2023-05-13 12:00",17.078,"Approved","OW441"
"2023-05-13 13:00",17.045,"Approved","OW441"
"2023-05-13 14:00",17.009,"Approved","OW441"
"2023-05-13 15:00",16.976,"Approved","OW441"
"2023-05-13 16:00",17.032,"Approved","OW441"
"2023-05-13 17:00",17.091,"Approved","OW441"
"2023-05-13 18:00",17.13,"Approved","OW441"
"2023-05-13 19:00",17.16,"Approved","OW441"
"2023-05-13 20:00",17.233,"Approved","OW441"
"2023-05-13 21:00",17.32,"Approved","OW441"
"2023-05-13 22:00",17.373,"Approved","OW441"
"2023-05-13 23:00",17.412,"Approved","OW441"
"2023-05-14 00:00",17.44,"Approved","OW441"
"2023-05-14 01:00",17.398,"Approved","OW441"
"2023-05-14 02:00",17.259,"Approved","OW441"
"2023-05-14 03:00",17.189,"Approved","OW441"
"2023-05-14 04:00",17.146,"Approved","OW441"
"2023-05-14 05:00",17.116,"Approved","OW441"
"2023-05-14 06:00",17.155,"Approved","OW441"
"2023-05-14 07:00",17.201,"Approved","OW441"
"2023-05-14 08:00",17.222,"Approved","OW441"
"2023-05-14 09:00",17.234,"Approved","OW441"
"2023-05-14 10:00",17.242,"Approved","OW441"
"2023-05-14 11:00",17.249,"Approved","OW441"
"2023-05-14 12:00",17.252,"Approved","OW441"
"2023-05-14 13:00",17.245,"Approved","OW441"
"2023-05-14 14:00",17.235,"Approved","OW441"
"2023-05-14 15:00",17.225,"Approved","OW441"
"2023-05-14 16:00",17.217,"Approved","OW441"
"2023-05-14 17:00",17.213,"Approved","OW441"
"2023-05-14 18:00",17.219,"Approved","OW441"
"2023-05-14 19:00",17.224,"Approved","OW441"
"2023-05-14 20:00",17.233,"Approved","OW441"
"2023-05-14 21:00",17.242,"Approved","OW441"
"2023-05-14 22:00",17.249,"Approved","OW441"
"2023-05-14 23:00",17.256,"Approved","OW441"
"2023-05-15 00:00",17.263,"Approved","OW441"
"2023-05-15 01:00",17.268,"Approved","OW441"
"2023-05-15 02:00",17.274,"Approved","OW441"
"2023-05-15 03:00",17.28,"Approved","OW441"
"2023-05-15 04:00",17.286,"Approved","OW441"
"2023-05-15 05:00",17.289,"Approved","OW441"
"2023-05-15 06:00",17.291,"Approved","OW441"
"2023-05-15 07:00",17.293,"Approved","OW441"
"2023-05-15 08:00",17.293,"Approved","OW441"
"2023-05-15 09:00",17.293,"Approved","OW441"
"2023-05-15 10:00",17.248,"Approved","OW441"
"2023-05-15 11:00",17.18,"Approved","OW441"
"2023-05-15 12:00",17.143,"Approved","OW441"
"2023-05-15 13:00",17.119,"Approved","OW441"
"2023-05-15 14:00",17.102,"Approved","OW441"
"2023-05-15 15:00",17.088,"Approved","OW441"
"2023-05-15 16:00",17.077,"Approved","OW441"
"2023-05-15 17:00",17.156,"Approved","OW441"
"2023-05-15 18:00",17.212,"Approved","OW441"
"2023-05-15 19:00",17.246,"Approved","OW441"
"2023-05-15 20:00",17.269,"Approved","OW441"
"2023-05-15 21:00",17.286,"Approved","OW441"
"2023-05-15 22:00",17.3,"Approved","OW441"
"2023-05-15 23:00",17.31,"Approved","OW441"
"2023-05-16 00:00",17.319,"Approved","OW441"
"2023-05-16 01:00",17.327,"Approved","OW441"
"2023-05-16 02:00",17.334,"Approved","OW441"
"2023-05-16 03:00",17.342,"Approved","OW441"
"2023-05-16 04:00",17.349,"Approved","OW441"
"2023-05-16 05:00",17.354,"Approved","OW441"
"2023-05-16 06:00",17.359,"Approved","OW441"
"2023-05-16 07:00",17.363,"Approved","OW441"
"2023-05-16 08:00",17.366,"Approved","OW441"
"2023-05-16 09:00",17.368,"Approved","OW441"
"2023-05-16 10:00",17.37,"Approved","OW441"
"2023-05-16 11:00",17.372,"Approved","OW441"
"2023-05-16 12:00",17.373,"Approved","OW441"
"2023-05-16 13:00",17.374,"Approved","OW441"
"2023-05-16 14:00",17.376,"Approved","OW441"
"2023-05-16 15:00",17.378,"Approved","OW441"
"2023-05-16 16:00",17.38,"Approved","OW441"
"2023-05-16 17:00",17.382,"Approved","OW441"
"2023-05-16 18:00",17.384,"Approved","OW441"
"2023-05-16 19:00",17.386,"Approved","OW441"
"2023-05-16 20:00",17.387,"Approved","OW441"
"2023-05-16 21:00",17.387,"Approved","OW441"
"2023-05-16 22:00",17.377,"Approved","OW441"
"2023-05-16 23:00",17.283,"Approved","OW441"
"2023-05-17 00:00",17.231,"Approved","OW441"
"2023-05-17 01:00",17.199,"Approved","OW441"
"2023-05-17 02:00",17.176,"Approved","OW441"
"2023-05-17 03:00",17.199,"Approved","OW441"
"2023-05-17 04:00",17.247,"Approved","OW441"
"2023-05-17 05:00",17.294,"Approved","OW441"
"2023-05-17 06:00",17.398,"Approved","OW441"
"2023-05-17 07:00",17.455,"Approved","OW441"
"2023-05-17 08:00",17.491,"Approved","OW441"
"2023-05-17 09:00",17.414,"Approved","OW441"
"2023-05-17 10:00",17.309,"Approved","OW441"
"2023-05-17 11:00",17.251,"Approved","OW441"
"2023-05-17 12:00",17.21,"Approved","OW441"
"2023-05-17 13:00",17.18,"Approved","OW441"
"2023-05-17 14:00",17.156,"Approved","OW441"
"2023-05-17 15:00",17.136,"Approved","OW441"
"2023-05-17 16:00",17.184,"Approved","OW441"
"2023-05-17 17:00",17.249,"Approved","OW441"
"2023-05-17 18:00",17.284,"Approved","OW441"
"2023-05-17 19:00",17.307,"Approved","OW441"
"2023-05-17 20:00",17.327,"Approved","OW441"
"2023-05-17 21:00",17.345,"Approved","OW441"
"2023-05-17 22:00",17.358,"Approved","OW441"
"2023-05-17 23:00",17.368,"Approved","OW441"
"2023-05-18 00:00",17.378,"Approved","OW441"
"2023-05-18 01:00",17.385,"Approved","OW441"
"2023-05-18 02:00",17.392,"Approved","OW441"
"2023-05-18 03:00",17.401,"Approved","OW441"
"2023-05-18 04:00",17.408,"Approved","OW441"
"2023-05-18 05:00",17.413,"Approved","OW441"
"2023-05-18 06:00",17.417,"Approved","OW441"
"2023-05-18 07:00",17.42,"Approved","OW441"
"2023-05-18 08:00",17.423,"Approved","OW441"
"2023-05-18 09:00",17.424,"Approved","OW441"
"2023-05-18 10:00",17.425,"Approved","OW441"
"2023-05-18 11:00",17.342,"Approved","OW441"
"2023-05-18 12:00",17.275,"Approved","OW441"
"2023-05-18 13:00",17.23,"Approved","OW441"
"2023-05-18 14:00",17.186,"Approved","OW441"
"2023-05-18 15:00",17.15,"Approved","OW441"
"2023-05-18 16:00",17.156,"Approved","OW441"
"2023-05-18 17:00",17.189,"Approved","OW441"
"2023-05-18 18:00",17.243,"Approved","OW441"
"2023-05-18 19:00",17.273,"Approved","OW441"
"2023-05-18 20:00",17.295,"Approved","OW441"
"2023-05-18 21:00",17.314,"Approved","OW441"
"2023-05-18 22:00",17.328,"Approved","OW441"
"2023-05-18 23:00",17.339,"Approved","OW441"
"2023-05-19 00:00",17.348,"Approved","OW441"
"2023-05-19 01:00",17.356,"Approved","OW441"
"2023-05-19 02:00",17.363,"Approved","OW441"
"2023-05-19 03:00",17.37,"Approved","OW441"
"2023-05-19 04:00",17.377,"Approved","OW441"
"2023-05-19 05:00",17.382,"Approved","OW441"
"2023-05-19 06:00",17.386,"Approved","OW441"
"2023-05-19 07:00",17.389,"Approved","OW441"
"2023-05-19 08:00",17.391,"Approved","OW441"
"2023-05-19 09:00",17.393,"Approved","OW441"
"2023-05-19 10:00",17.394,"Approved","OW441"
"2023-05-19 11:00",17.389,"Approved","OW441"
"2023-05-19 12:00",17.38,"Approved","OW441"
"2023-05-19 13:00",17.311,"Approved","OW441"
"2023-05-19 14:00",17.242,"Approved","OW441"
"2023-05-19 15:00",17.199,"Approved","OW441"
"2023-05-19 16:00",17.167,"Approved","OW441"
"2023-05-19 17:00",17.143,"Approved","OW441"
"2023-05-19 18:00",17.15,"Approved","OW441"
"2023-05-19 19:00",17.225,"Approved","OW441"
"2023-05-19 20:00",17.263,"Approved","OW441"
"2023-05-19 21:00",17.291,"Approved","OW441"
"2023-05-19 22:00",17.315,"Approved","OW441"
"2023-05-19 23:00",17.334,"Approved","OW441"
"2023-05-20 00:00",17.353,"Approved","OW441"
"2023-05-20 01:00",17.369,"Approved","OW441"
"2023-05-20 02:00",17.382,"Approved","OW441"
"2023-05-20 03:00",17.393,"Approved","OW441"
"2023-05-20 04:00",17.404,"Approved","OW441"
"2023-05-20 05:00",17.413,"Approved","OW441"
"2023-05-20 06:00",17.418,"Approved","OW441"
"2023-05-20 07:00",17.424,"Approved","OW441"
"2023-05-20 08:00",17.428,"Approved","OW441"
"2023-05-20 09:00",17.431,"Approved","OW441"
"2023-05-20 10:00",17.425,"Approved","OW441"
"2023-05-20 11:00",17.411,"Approved","OW441"
"2023-05-20 12:00",17.397,"Approved","OW441"
"2023-05-20 13:00",17.375,"Approved","OW441"
"2023-05-20 14:00",17.292,"Approved","OW441"
"2023-05-20 15:00",17.195,"Approved","OW441"
"2023-05-20 16:00",17.139,"Approved","OW441"
"2023-05-20 17:00",17.104,"Approved","OW441"
"2023-05-20 18:00",17.077,"Approved","OW441"
"2023-05-20 19:00",17.141,"Approved","OW441"
"2023-05-20 20:00",17.185,"Approved","OW441"
"2023-05-20 21:00",17.305,"Approved","OW441"
"2023-05-20 22:00",17.396,"Approved","OW441"
"2023-05-20 23:00",17.455,"Approved","OW441"
"2023-05-21 00:00",17.498,"Approved","OW441"
"2023-05-21 01:00",17.531,"Approved","OW441"
"2023-05-21 02:00",17.442,"Approved","OW441"
"2023-05-21 03:00",17.343,"Approved","OW441"
"2023-05-21 04:00",17.29,"Approved","OW441"
"2023-05-21 05:00",17.255,"Approved","OW441"
"2023-05-21 06:00",17.232,"Approved","OW441"
"2023-05-21 07:00",17.248,"Approved","OW441"
"2023-05-21 08:00",17.322,"Approved","OW441"
"2023-05-21 09:00",17.347,"Approved","OW441"
"2023-05-21 10:00",17.356,"Approved","OW441"
"2023-05-21 11:00",17.357,"Approved","OW441"
"2023-05-21 12:00",17.338,"Approved","OW441"
"2023-05-21 13:00",17.319,"Approved","OW441"
"2023-05-21 14:00",17.303,"Approved","OW441"
"2023-05-21 15:00",17.202,"Approved","OW441"
"2023-05-21 16:00",17.126,"Approved","OW441"
"2023-05-21 17:00",17.077,"Approved","OW441"
"2023-05-21 18:00",17.055,"Approved","OW441"
"2023-05-21 19:00",17.051,"Approved","OW441"
"2023-05-21 20:00",17.139,"Approved","OW441"
"2023-05-21 21:00",17.185,"Approved","OW441"
"2023-05-21 22:00",17.213,"Approved","OW441"
"2023-05-21 23:00",17.232,"Approved","OW441"
"2023-05-22 00:00",17.249,"Approved","OW441"
"2023-05-22 01:00",17.264,"Approved","OW441"
"2023-05-22 02:00",17.281,"Approved","OW441"
"2023-05-22 03:00",17.296,"Approved","OW441"
"2023-05-22 04:00",17.309,"Approved","OW441"
"2023-05-22 05:00",17.319,"Approved","OW441"
"2023-05-22 06:00",17.327,"Approved","OW441"
"2023-05-22 07:00",17.328,"Approved","OW441"
"2023-05-22 08:00",17.323,"Approved","OW441"
"2023-05-22 09:00",17.315,"Approved","OW441"
"2023-05-22 10:00",17.307,"Approved","OW441"
"2023-05-22 11:00",17.283,"Approved","OW441"
"2023-05-22 12:00",17.186,"Approved","OW441"
"2023-05-22 13:00",17.111,"Approved","OW441"
"2023-05-22 14:00",17.061,"Approved","OW441"
"2023-05-22 15:00",17.022,"Approved","OW441"
"2023-05-22 16:00",16.992,"Approved","OW441"
"2023-05-22 17:00",16.967,"Approved","OW441"
"2023-05-22 18:00",16.951,"Approved","OW441"
"2023-05-22 19:00",17.039,"Approved","OW441"
"2023-05-22 20:00",17.088,"Approved","OW441"
"2023-05-22 21:00",17.121,"Approved","OW441"
"2023-05-22 22:00",17.143,"Approved","OW441"
"2023-05-22 23:00",17.16,"Approved","OW441"
"2023-05-23 00:00",17.174,"Approved","OW441"
"2023-05-23 01:00",17.194,"Approved","OW441"
"2023-05-23 02:00",17.218,"Approved","OW441"
"2023-05-23 03:00",17.238,"Approved","OW441"
"2023-05-23 04:00",17.255,"Approved","OW441"
"2023-05-23 05:00",17.269,"Approved","OW441"
"2023-05-23 06:00",17.28,"Approved","OW441"
"2023-05-23 07:00",17.288,"Approved","OW441"
"2023-05-23 08:00",17.291,"Approved","OW441"
"2023-05-23 09:00",17.283,"Approved","OW441"
"2023-05-23 10:00",17.268,"Approved","OW441"
"2023-05-23 11:00",17.192,"Approved","OW441"
"2023-05-23 12:00",17.099,"Approved","OW441"
"2023-05-23 13:00",17.04,"Approved","OW441"
"2023-05-23 14:00",16.998,"Approved","OW441"
"2023-05-23 15:00",16.965,"Approved","OW441"
"2023-05-23 16:00",16.937,"Approved","OW441"
"2023-05-23 17:00",16.923,"Approved","OW441"
"2023-05-23 18:00",16.974,"Approved","OW441"
"2023-05-23 19:00",17.026,"Approved","OW441"
"2023-05-23 20:00",17.055,"Approved","OW441"
"2023-05-23 21:00",17.078,"Approved","OW441"
"2023-05-23 22:00",17.096,"Approved","OW441"
"2023-05-23 23:00",17.112,"Approved","OW441"
"2023-05-24 00:00",17.128,"Approved","OW441"
"2023-05-24 01:00",17.141,"Approved","OW441"
"2023-05-24 02:00",17.155,"Approved","OW441"
"2023-05-24 03:00",17.169,"Approved","OW441"
"2023-05-24 04:00",17.181,"Approved","OW441"
"2023-05-24 05:00",17.191,"Approved","OW441"
"2023-05-24 06:00",17.199,"Approved","OW441"
"2023-05-24 07:00",17.205,"Approved","OW441"
"2023-05-24 08:00",17.197,"Approved","OW441"
"2023-05-24 09:00",17.185,"Approved","OW441"
"2023-05-24 10:00",17.168,"Approved","OW441"
"2023-05-24 11:00",17.153,"Approved","OW441"
"2023-05-24 12:00",17.074,"Approved","OW441"
"2023-05-24 13:00",17.01,"Approved","OW441"
"2023-05-24 14:00",16.968,"Approved","OW441"
"2023-05-24 15:00",16.934,"Approved","OW441"
"2023-05-24 16:00",16.907,"Approved","OW441"
"2023-05-24 17:00",16.888,"Approved","OW441"
"2023-05-24 18:00",16.961,"Approved","OW441"
"2023-05-24 19:00",17.029,"Approved","OW441"
"2023-05-24 20:00",17.079,"Approved","OW441"
"2023-05-24 21:00",17.125,"Approved","OW441"
"2023-05-24 22:00",17.157,"Approved","OW441"
"2023-05-24 23:00",17.159,"Approved","OW441"
"2023-05-25 00:00",17.159,"Approved","OW441"
"2023-05-25 01:00",17.157,"Approved","OW441"
"2023-05-25 02:00",17.158,"Approved","OW441"
"2023-05-25 03:00",17.159,"Approved","OW441"
"2023-05-25 04:00",17.162,"Approved","OW441"
"2023-05-25 05:00",17.163,"Approved","OW441"
"2023-05-25 06:00",17.164,"Approved","OW441"
"2023-05-25 07:00",17.165,"Approved","OW441"
"2023-05-25 08:00",17.164,"Approved","OW441"
"2023-05-25 09:00",17.131,"Approved","OW441"
"2023-05-25 10:00",17.041,"Approved","OW441"
"2023-05-25 11:00",16.991,"Approved","OW441"
"2023-05-25 12:00",16.956,"Approved","OW441"
"2023-05-25 13:00",16.931,"Approved","OW441"
"2023-05-25 14:00",16.909,"Approved","OW441"
"2023-05-25 15:00",16.891,"Approved","OW441"
"2023-05-25 16:00",16.875,"Approved","OW441"
"2023-05-25 17:00",16.947,"Approved","OW441"
"2023-05-25 18:00",16.993,"Approved","OW441"
"2023-05-25 19:00",17.021,"Approved","OW441"
"2023-05-25 20:00",17.044,"Approved","OW441"
"2023-05-25 21:00",17.054,"Approved","OW441"
"2023-05-25 22:00",17.064,"Approved","OW441"
"2023-05-25 23:00",17.086,"Approved","OW441"
"2023-05-26 00:00",17.125,"Approved","OW441"
"2023-05-26 01:00",17.16,"Approved","OW441"
"2023-05-26 02:00",17.187,"Approved","OW441"
"2023-05-26 03:00",17.211,"Approved","OW441"
"2023-05-26 04:00",17.232,"Approved","OW441"
"2023-05-26 05:00",17.249,"Approved","OW441"
"2023-05-26 06:00",17.262,"Approved","OW441"
"2023-05-26 07:00",17.279,"Approved","OW441"
"2023-05-26 08:00",17.288,"Approved","OW441"
"2023-05-26 09:00",17.297,"Approved","OW441"
"2023-05-26 10:00",17.303,"Approved","OW441"
"2023-05-26 11:00",17.309,"Approved","OW441"
"2023-05-26 12:00",17.236,"Approved","OW441"
"2023-05-26 13:00",17.172,"Approved","OW441"
"2023-05-26 14:00",17.13,"Approved","OW441"
"2023-05-26 15:00",17.097,"Approved","OW441"
"2023-05-26 16:00",17.096,"Approved","OW441"
"2023-05-26 17:00",17.063,"Approved","OW441"
"2023-05-26 18:00",17.106,"Approved","OW441"
"2023-05-26 19:00",17.168,"Approved","OW441"
"2023-05-26 20:00",17.207,"Approved","OW441"
"2023-05-26 21:00",17.241,"Approved","OW441"
"2023-05-26 22:00",17.27,"Approved","OW441"
"2023-05-26 23:00",17.292,"Approved","OW441"
"2023-05-27 00:00",17.31,"Approved","OW441"
"2023-05-27 01:00",17.325,"Approved","OW441"
"2023-05-27 02:00",17.339,"Approved","OW441"
"2023-05-27 03:00",17.352,"Approved","OW441"
"2023-05-27 04:00",17.362,"Approved","OW441"
"2023-05-27 05:00",17.371,"Approved","OW441"
"2023-05-27 06:00",17.378,"Approved","OW441"
"2023-05-27 07:00",17.388,"Approved","OW441"
"2023-05-27 08:00",17.395,"Approved","OW441"
"2023-05-27 09:00",17.4,"Approved","OW441"
"2023-05-27 10:00",17.405,"Approved","OW441"
"2023-05-27 11:00",17.398,"Approved","OW441"
"2023-05-27 12:00",17.385,"Approved","OW441"
"2023-05-27 13:00",17.371,"Approved","OW441"
"2023-05-27 14:00",17.338,"Approved","OW441"
"2023-05-27 15:00",17.222,"Approved","OW441"
"2023-05-27 16:00",17.15,"Approved","OW441"
"2023-05-27 17:00",17.103,"Approved","OW441"
"2023-05-27 18:00",17.072,"Approved","OW441"
"2023-05-27 19:00",17.119,"Approved","OW441"
"2023-05-27 20:00",17.174,"Approved","OW441"
"2023-05-27 21:00",17.309,"Approved","OW441"
"2023-05-27 22:00",17.396,"Approved","OW441"
"2023-05-27 23:00",17.454,"Approved","OW441"
"2023-05-28 00:00",17.496,"Approved","OW441"
"2023-05-28 01:00",17.529,"Approved","OW441"
"2023-05-28 02:00",17.395,"Approved","OW441"
"2023-05-28 03:00",17.314,"Approved","OW441"
"2023-05-28 04:00",17.269,"Approved","OW441"
"2023-05-28 05:00",17.239,"Approved","OW441"
"2023-05-28 06:00",17.217,"Approved","OW441"
"2023-05-28 07:00",17.269,"Approved","OW441"
"2023-05-28 08:00",17.335,"Approved","OW441"
"2023-05-28 09:00",17.363,"Approved","OW441"
"2023-05-28 10:00",17.371,"Approved","OW441"
"2023-05-28 11:00",17.373,"Approved","OW441"
"2023-05-28 12:00",17.368,"Approved","OW441"
"2023-05-28 13:00",17.35,"Approved","OW441"
"2023-05-28 14:00",17.329,"Approved","OW441"
"2023-05-28 15:00",17.22,"Approved","OW441"
"2023-05-28 16:00",17.141,"Approved","OW441"
"2023-05-28 17:00",17.093,"Approved","OW441"